[Iaude] MPEC C41: 2024 CG [a=1.36,e=0.30,i=14.7,H=26.4]

mpec at marsden.cfa.harvard.edu mpec at marsden.cfa.harvard.edu
Sun Feb 4 08:58:05 EST 2024


M.P.E.C. 2024-C41                              Issued 2024 February 4, 13:56 UT

     The Minor Planet Electronic Circulars contain information on unusual
         minor planets, routine data on comets and natural satellites,
         and occasional editorial announcements.  They are published
    on behalf of Division F of the International Astronomical Union by the
          Minor Planet Center, Smithsonian Astrophysical Observatory,
                          Cambridge, MA 02138, U.S.A.
			  
             Prepared using the Tamkin Foundation Computer Network

                              MPC at CFA.HARVARD.EDU
            URL https://www.minorplanetcenter.net/    ISSN 1523-6714

                                    2024 CG                                     


Observations:
     K24C00G* C2024 02 01.25923208 05 22.282+57 15 17.27               UEC041I41
     K24C00G  C2024 02 01.25957908 05 23.718+57 15 28.96               UEC041I41
     K24C00G  C2024 02 01.36655008 13 45.212+58 13 50.67         18.40RUEC041I41
     K24C00G  C2024 02 01.36689708 13 46.837+58 14 01.57         18.40RUEC041I41
     K24C00G  C2024 02 01.40540108 16 46.971+58 32 42.46         18.32RUEC041I41
     K24C00G  C2024 02 01.40574808 16 48.524+58 32 52.33         18.32RUEC041I41
     K24C00G hC2024 02 04.15728410 50 36.93 +65 20 45.6          20.3 GVEC041L01
     K24C00G hC2024 02 04.15876610 50 39.46 +65 20 45.1          20.5 GVEC041L01
     K24C00G hC2024 02 04.16024810 50 42.08 +65 20 45.7          20.0 GVEC041L01
     K24C00G hC2024 02 04.16172910 50 44.77 +65 20 45.1          20.3 GVEC041L01
     K24C00G hC2024 02 04.16321010 50 47.36 +65 20 44.7          20.3 GVEC041L01
     K24C00G KC2024 02 04.26380810 54 35.06 +65 22 31.7          20.3 GVEC041H21
     K24C00G KC2024 02 04.26660510 54 39.52 +65 22 34.3          20.4 GVEC041H21
     K24C00G KC2024 02 04.26940010 54 44.07 +65 22 36.0          20.3 GVEC041H21

Observer details:
H21 Astronomical Research Observatory, Westfield.  Observer R. Holmes.
    Measurers T. Linder, R. Holmes, L. Horn.  0.76-m f/3.0 astrograph + CCD.
I41 Palomar Mountain--ZTF.  Observers G. Helou, T. A. Prince, K.
    Venkataramani, D. Kulkarni, L. Rodriguez-Aceves, Q.-Z. Ye, Z. T. F.
    Collaboration.  Measurers D. A. Duev, H.-W. Lin, A. A. Mahabal, F. J.
    Masci, Q.-Z. Ye.  1.2-m f/2.4 Schmidt + ZTF Camera.
L01 Visnjan Observatory, Tican.  Observer K. Korlevic.  1.0-m f/2.9 reflector
    + CCD.

Orbital elements:
2024 CG                                                  Earth MOID = 0.0043 AU
Epoch 2023 Sept. 13.0 TT = JDT 2460200.5                MPC                     
M 290.80940              (2000.0)            P               Q                  
n   0.62179811     Peri.  326.57553     -0.12220476     -0.97319220             
a   1.3594705      Node   129.64762     +0.95702561     -0.16756297             
e   0.2986358      Incl.   14.65781     +0.26299806     +0.15754236             
P   1.59           H   26.46          G   0.15           U   8                  
Residuals in seconds of arc
240201 I41  1.2+  0.4+    240201 I41  0.5+  0.4-    240204 L01  0.1+  0.6+
240201 I41  0.5-  0.3-    240204 L01  0.1-  0.5-    240204 H21  0.2+  0.0
240201 I41  0.6-  0.0     240204 L01  0.5-  0.5-    240204 H21  0.2-  0.3+
240201 I41  0.5-  0.5+    240204 L01  0.4-  0.6+    240204 H21  0.0   0.3-
240201 I41  1.1+  0.4-    240204 L01  0.2+  0.5+

Ephemeris:
2024 CG                  a,e,i = 1.36, 0.30, 15                  q = 0.9535
Date    TT    R. A. (2000) Decl.     Delta      r    Elong.  Phase     V
2024 01 05    01 27 31.2 -59 58 27   0.1394  0.9539    73.8    98.1    25.6
...
2024 01 20    02 05 48.1 -56 52 30   0.05892 0.9685    73.2   103.5    24.0
...
2024 01 28    03 37 13.5 -39 10 40   0.01584 0.9846    89.2    89.9    20.6
...
2024 02 03    10 04 22.3 +64 38 12   0.02175 0.9999   131.1    48.0    20.0
2024 02 04    10 45 48.5 +65 18 01   0.02706 1.0027   128.5    50.3    20.5
2024 02 05    11 14 03.8 +65 19 09   0.03248 1.0056   126.8    51.7    20.9
...
2024 02 11    12 18 46.2 +63 47 23   0.06575 1.0242   123.1    53.8    22.6
...
2024 02 19    12 35 51.9 +62 12 32   0.1106  1.0523   122.8    52.1    23.7
...
2024 03 05    12 32 54.4 +59 19 51   0.1950  1.1128   124.0    47.6    24.9

A. U. Tomatic                (C) Copyright 2024 MPC           M.P.E.C. 2024-C41





More information about the Iaude mailing list